Regional Weather Roundup
Issued by NWS

Home | Current Version | Previous Version | Graphics & Text | Print | Product List | Glossary On
Versions: 1 2 3 4 5 6 7 8 9 10 11 12 13 14 15 16 17 18 19 20 21 22 23 24 25 26 27 28 29 30 31 32 33 34 35 36 37 38 39 40 41 42 43 44 45 46 47 48 49 50
000
ASUS43 KIND 181709
RWRIN

WEATHER ROUNDUP FOR INDIANA
NATIONAL WEATHER SERVICE INDIANAPOLIS IN
1200 PM EST SUN FEB 18 2018

NOTE: "FAIR" INDICATES FEW OR NO CLOUDS BELOW 12,000 FEET WITH NO
SIGNIFICANT WEATHER AND/OR OBSTRUCTIONS TO VISIBILITY.

* - STATION DOES NOT REPORT WEATHER SUCH AS PRECIPITATION OR FOG.

+ - STATION NOT QUALITY CONTROLLED BY THE NATIONAL WEATHER SERVICE.
    USE DATA WITH CAUTION...ESPECIALLY DEWPOINT AND RELATIVE
    HUMIDITY OBSERVATIONS.

INZ001>003-010>013-019-020-181800-
NORTHWEST INDIANA

CITY           SKY/WX    TMP DP  RH WIND       PRES   REMARKS
GARY /AIRPORT/ PTSUNNY   28  25  86 S7        30.30F WCI  21
KNOX *+        CLOUDY    28  27  93 S12       30.32R WCI  18
LA PORTE +     CLOUDY    27  26  95 S8        30.31F WCI  19
MICHIGAN CITY+ CLOUDY    30  27  86 S13       30.30F WCI  20
MONTICELLO +   FAIR      32  27  79 S8        30.31S WCI  25
RENSSELAER +   CLOUDY    32  27  80 S10       30.31S WCI  24
VALPARAISO     CLOUDY    28  25  88 S12       30.31S WCI  18

$$

LMZ046-743>745-181800-
SOUTHERN LAKE MICHIGAN

STATION/POSITION TIME  TEMP    WIND        PRES    WAVE
                       AIR SEA DIR/SP/G            HT
                 (UTC) (F)     (DEG/KT/KT) (MB)    (FT)
BURNS HARBOR     1640   27     170/ 13/ 20 1026.1S
MICHIGAN CITY    1640   27     150/ 13/ 16   N/A

$$

INZ004-005-014>016-021>024-181800-
NORTH CENTRAL INDIANA

CITY           SKY/WX    TMP DP  RH WIND       PRES   REMARKS
ELKHART        CLOUDY    28  25  86 S10       30.31R WCI  19
GOSHEN         CLOUDY    29  24  82 S14       30.32R WCI  18
LOGANSPORT +   PTSUNNY   32  28  86 S8        30.33R WCI  25
PERU/GRISSOM   PTSUNNY   32  32 100 S12       30.31S WCI  23
ROCHESTER +    CLOUDY    34  28  80 SE6       30.33R WCI  29
SOUTH BEND     CLOUDY    27  24  89 S16       30.31R WCI  15
WARSAW +       CLOUDY    30  27  86 S6G16     30.33R WCI  24

$$

INZ006>009-017-018-025>027-181800-
NORTHEAST INDIANA

CITY           SKY/WX    TMP DP  RH WIND       PRES   REMARKS
AUBURN +       CLOUDY    32  27  80 S7        30.33R WCI  26
FORT WAYNE     CLOUDY    32  27  81 S13       30.34S WCI  22
HUNTINGTON +   CLOUDY    31  26  80 S10       30.33S WCI  22
KENDALLVILLE + CLOUDY    30  25  82 S13G21    30.31R WCI  20

$$

INZ028-029-035-036-043>045-051>053-181800-
WEST CENTRAL INDIANA

CITY           SKY/WX    TMP DP  RH WIND       PRES   REMARKS
CRAWFORDSVL +  FAIR      32  31  96 S12       30.31S WCI  23
GREENCASTLE +  FAIR      36  32  87 SE9       30.31F WCI  29
LAFAYETTE      PTSUNNY   33  29  85 S9        30.32R WCI  25
TERRE HAUTE    FAIR      39  33  79 SE10      30.31F WCI  32

$$

INZ030>032-037>040-046>048-054>057-064-065-181800-
CENTRAL INDIANA

CITY           SKY/WX    TMP DP  RH WIND       PRES   REMARKS
COLUMBUS       MOSUNNY   37  28  70 SE6       30.35F WCI  33
FISHERS *+     PTSUNNY   34  32  93 S12       30.33F WCI  25
FRANKFORT +    CLOUDY    36  32  85 S9        30.33R WCI  29
GREENWOOD *+   CLOUDY   N/A N/A N/A S9        30.35F
INDIANAPOLIS   PTSUNNY   36  30  79 SE14      30.32F WCI  27
-EAGLE CREEK   FAIR      35  28  75 S12       30.31F WCI  27
KOKOMO +       CLOUDY    32  28  85 S16       30.33S WCI  21
MARION +       PTSUNNY   32  27  83 S14       30.34S HAZE    WCI  22
MT COMFORT *+  CLOUDY    32  32 100 S9        30.34F WCI  24
SHELBYVILLE    FAIR      37  30  75 S8        30.35S WCI  31
ZIONSVILLE +   FAIR      32  29  88 SE16      30.32F WCI  22

$$

INZ033-034-041-042-049-050-058-059-181800-
EAST CENTRAL INDIANA

CITY           SKY/WX    TMP DP  RH WIND       PRES   REMARKS
MUNCIE         PTSUNNY   35  28  75 S13       30.33F WCI  26
RICHMOND +     PTSUNNY   32  30  93 S8G17     30.35F WCI  25

$$

INZ060-061-067>069-081>083-085>088-181800-
SOUTHWEST INDIANA

CITY           SKY/WX    TMP DP  RH WIND       PRES   REMARKS
EVANSVILLE     FAIR      44  36  73 E8        30.30F
HUNTINGBURG +  FAIR      45  36  70 E12       30.31F
WASHINGTON +   FAIR      42  32  67 SE9       30.30F

$$

INZ062-063-066-070>080-084-089>092-181800-
SOUTH CENTRAL AND SOUTHEAST INDIANA

CITY           SKY/WX    TMP DP  RH WIND       PRES   REMARKS
BATESVILLE +   PTSUNNY   36  32  87 MISG      30.34F
BEDFORD +      FAIR      41  34  75 SE7       30.32F
BLOOMINGTON    FAIR      40  33  76 S7        30.31F WCI  35
FRENCH LICK *+ FAIR      41  30  65 E8        30.30F
MADISON *+     FAIR      41  32  70 E5        30.35F
NORTH VERNON + FAIR      37  30  75 E6        30.35F WCI  33
SEYMOUR +      FAIR      41  32  70 SE6       30.34F

$$





USA.gov is the U.S. government's official web portal to all federal, state and local government web resources and services.